| time (UTC) | temp F | wind direction | speed MPH | gust MPH | rain 1hr in | rain 24hr in | rain mn in | humidity % | barometer mb |
| 20260506231003 | 58 | 286 | 2.0 | 3.0 | 0.00 | 0.49 | 0.40 | 69 | 1011.9 |
| 20260506230503 | 58 | 299 | 2.0 | 4.0 | 0.00 | 0.49 | 0.40 | 70 | 1011.6 |
| 20260506230003 | 58 | 312 | 2.0 | 5.0 | 0.00 | 0.49 | 0.40 | 69 | 1011.4 |
| 20260506225503 | 58 | 316 | 3.0 | 6.0 | 0.00 | 0.49 | 0.40 | 66 | 1011.2 |
| 20260506225024 | 58 | 313 | 3.0 | 6.0 | 0.00 | 0.49 | 0.40 | 68 | 1011.2 |
| 20260506224524 | 59 | 310 | 3.0 | 5.0 | 0.00 | 0.49 | 0.40 | 68 | 1011.3 |
| 20260506224003 | 59 | 318 | 3.0 | 7.0 | 0.00 | 0.49 | 0.40 | 67 | 1011.7 |
| 20260506223503 | 59 | 316 | 3.0 | 7.0 | 0.00 | 0.49 | 0.40 | 65 | 1011.2 |
| 20260506223003 | 60 | 315 | 3.0 | 5.0 | 0.00 | 0.49 | 0.40 | 67 | 1011.5 |
| 20260506222503 | 60 | 322 | 2.0 | 5.0 | 0.00 | 0.49 | 0.40 | 69 | 1011.5 |
| 20260506222003 | 60 | 325 | 2.0 | 5.0 | 0.00 | 0.49 | 0.40 | 66 | 1011.3 |
| 20260506221504 | 60 | 324 | 3.0 | 7.0 | 0.00 | 0.49 | 0.40 | 68 | 1011.0 |
| 20260506221003 | 60 | 332 | 3.0 | 7.0 | 0.00 | 0.49 | 0.40 | 66 | 1011.0 |
| 20260506220503 | 60 | 332 | 3.0 | 6.0 | 0.00 | 0.49 | 0.40 | 68 | 1011.1 |
| 20260506220003 | 60 | 325 | 2.0 | 5.0 | 0.00 | 0.49 | 0.40 | 67 | 1011.4 |
| 20260506215503 | 60 | 325 | 2.0 | 4.0 | 0.00 | 0.49 | 0.40 | 72 | 1011.3 |
| 20260506215003 | 60 | 308 | 2.0 | 4.0 | 0.00 | 0.49 | 0.40 | 69 | 1011.4 |
| 20260506214503 | 60 | 296 | 3.0 | 4.0 | 0.00 | 0.49 | 0.40 | 70 | 1011.4 |
| 20260506214024 | 60 | 298 | 3.0 | 5.0 | 0.00 | 0.49 | 0.40 | 70 | 1011.9 |
| 20260506213503 | 61 | 297 | 3.0 | 5.0 | 0.00 | 0.49 | 0.40 | 69 | 1011.8 |
| 20260506213003 | 61 | 299 | 3.0 | 5.0 | 0.00 | 0.49 | 0.40 | 69 | 1011.6 |
| 20260506212503 | 61 | 302 | 3.0 | 7.0 | 0.00 | 0.49 | 0.40 | 70 | 1011.4 |
| 20260506212003 | 61 | 294 | 3.0 | 7.0 | 0.00 | 0.49 | 0.40 | 68 | 1011.3 |
| 20260506211503 | 61 | 292 | 3.0 | 4.0 | 0.00 | 0.49 | 0.40 | 71 | 1011.4 |
| 20260506211003 | 61 | 292 | 3.0 | 4.0 | 0.00 | 0.49 | 0.40 | 70 | 1011.4 |
| 20260506210503 | 62 | 298 | 2.0 | 4.0 | 0.00 | 0.49 | 0.40 | 70 | 1011.3 |
| 20260506210003 | 62 | 295 | 2.0 | 4.0 | 0.00 | 0.49 | 0.40 | 70 | 1011.3 |
| 20260506205503 | 62 | 286 | 2.0 | 4.0 | 0.00 | 0.49 | 0.40 | 71 | 1011.3 |
| 20260506205003 | 62 | 286 | 2.0 | 4.0 | 0.00 | 0.49 | 0.40 | 67 | 1011.4 |
| 20260506204503 | 62 | 292 | 2.0 | 4.0 | 0.00 | 0.49 | 0.40 | 70 | 1011.3 |
| 20260506204003 | 62 | 282 | 2.0 | 4.0 | 0.00 | 0.49 | 0.40 | 70 | 1011.1 |
| 20260506203503 | 62 | 299 | 2.0 | 4.0 | 0.00 | 0.49 | 0.40 | 68 | 1011.0 |
| 20260506203003 | 61 | 13 | 2.0 | 4.0 | 0.00 | 0.49 | 0.40 | 68 | 1010.9 |
| 20260506202503 | 61 | 359 | 2.0 | 4.0 | 0.00 | 0.49 | 0.40 | 69 | 1011.2 |
| 20260506202003 | 62 | 289 | 2.0 | 4.0 | 0.00 | 0.49 | 0.40 | 67 | 1011.3 |
| 20260506201503 | 62 | 290 | 2.0 | 4.0 | 0.00 | 0.49 | 0.40 | 67 | 1011.4 |
| 20260506201003 | 62 | 308 | 1.0 | 4.0 | 0.00 | 0.49 | 0.40 | 67 | 1011.5 |
| 20260506200503 | 62 | 292 | 1.0 | 3.0 | 0.00 | 0.49 | 0.40 | 66 | 1011.6 |
| 20260506200003 | 62 | 296 | 1.0 | 4.0 | 0.00 | 0.49 | 0.40 | 68 | 1011.6 |
| 20260506195503 | 62 | 301 | 2.0 | 5.0 | 0.00 | 0.49 | 0.40 | 69 | 1011.4 |
| 20260506195003 | 62 | 287 | 2.0 | 5.0 | 0.00 | 0.49 | 0.40 | 67 | 1011.6 |
| 20260506194503 | 62 | 303 | 2.0 | 3.0 | 0.00 | 0.49 | 0.40 | 68 | 1011.8 |
| 20260506194003 | 62 | 350 | 2.0 | 3.0 | 0.00 | 0.49 | 0.40 | 65 | 1011.5 |
| 20260506193503 | 62 | 320 | 2.0 | 6.0 | 0.00 | 0.49 | 0.40 | 67 | 1011.3 |
| 20260506193003 | 62 | 309 | 2.0 | 6.0 | 0.00 | 0.49 | 0.40 | 67 | 1011.4 |
| 20260506192503 | 62 | 324 | 2.0 | 5.0 | 0.00 | 0.49 | 0.40 | 72 | 1011.3 |
| 20260506192003 | 62 | 321 | 2.0 | 5.0 | 0.00 | 0.49 | 0.40 | 68 | 1011.3 |
| 20260506191524 | 62 | 304 | 1.0 | 5.0 | 0.00 | 0.49 | 0.40 | 67 | 1011.5 |
| 20260506191003 | 62 | 282 | 2.0 | 7.0 | 0.00 | 0.49 | 0.40 | 65 | 1011.3 |
| 20260506190503 | 62 | 265 | 2.0 | 7.0 | 0.00 | 0.49 | 0.40 | 67 | 1011.3 |
| 20260506190003 | 62 | 261 | 2.0 | 7.0 | 0.00 | 0.49 | 0.40 | 73 | 1011.4 |
| 20260506185503 | 62 | 271 | 2.0 | 7.0 | 0.00 | 0.49 | 0.40 | 67 | 1011.5 |
| 20260506185024 | 62 | 352 | 2.0 | 4.0 | 0.00 | 0.49 | 0.40 | 67 | 1011.2 |
| 20260506184503 | 61 | 302 | 2.0 | 5.0 | 0.00 | 0.49 | 0.40 | 69 | 1011.1 |
| 20260506184003 | 61 | 284 | 2.0 | 5.0 | 0.00 | 0.49 | 0.40 | 69 | 1011.1 |
| 20260506183503 | 61 | 294 | 2.0 | 5.0 | 0.00 | 0.49 | 0.40 | 67 | 1011.3 |
| 20260506183003 | 61 | 271 | 1.0 | 5.0 | 0.00 | 0.49 | 0.40 | 67 | 1011.3 |
| 20260506182503 | 61 | 244 | 1.0 | 5.0 | 0.00 | 0.49 | 0.40 | 72 | 1011.3 |
| 20260506182003 | 60 | 2 | 3.0 | 5.0 | 0.00 | 0.49 | 0.40 | 67 | 1011.3 |
| 20260506181503 | 60 | 16 | 4.0 | 10.0 | 0.00 | 0.49 | 0.40 | 73 | 1011.2 |
| 20260506181024 | 60 | 22 | 4.0 | 10.0 | 0.00 | 0.49 | 0.40 | 71 | 1011.0 |
| 20260506180503 | 60 | 14 | 3.0 | 9.0 | 0.00 | 0.49 | 0.40 | 72 | 1011.0 |
| 20260506180004 | 60 | 17 | 2.0 | 5.0 | 0.00 | 0.49 | 0.40 | 71 | 1011.0 |
| 20260506175503 | 60 | 11 | 3.0 | 6.0 | 0.00 | 0.49 | 0.40 | 71 | 1011.0 |
| 20260506175003 | 60 | 341 | 3.0 | 6.0 | 0.00 | 0.49 | 0.40 | 75 | 1011.3 |
| 20260506174503 | 59 | 348 | 4.0 | 8.0 | 0.00 | 0.49 | 0.40 | 74 | 1011.3 |
| 20260506174003 | 59 | 2 | 4.0 | 8.0 | 0.00 | 0.49 | 0.40 | 72 | 1011.4 |
| 20260506173503 | 60 | 340 | 3.0 | 6.0 | 0.00 | 0.49 | 0.40 | 72 | 1011.3 |
| 20260506173003 | 60 | 332 | 4.0 | 10.0 | 0.00 | 0.49 | 0.40 | 73 | 1011.3 |
| 20260506172503 | 59 | 336 | 3.0 | 10.0 | 0.00 | 0.49 | 0.40 | 73 | 1011.4 |
| 20260506172003 | 59 | 14 | 3.0 | 11.0 | 0.00 | 0.49 | 0.40 | 80 | 1011.4 |
| 20260506171503 | 58 | 20 | 4.0 | 11.0 | 0.00 | 0.49 | 0.40 | 74 | 1011.5 |
| 20260506171003 | 58 | 344 | 4.0 | 7.0 | 0.00 | 0.49 | 0.40 | 76 | 1011.4 |
| 20260506170524 | 58 | 335 | 4.0 | 8.0 | 0.00 | 0.49 | 0.40 | 76 | 1011.6 |
| 20260506170003 | 58 | 13 | 4.0 | 8.0 | 0.00 | 0.49 | 0.40 | 76 | 1011.6 |
| 20260506165503 | 58 | 21 | 4.0 | 11.0 | 0.00 | 0.49 | 0.40 | 75 | 1011.6 |
| 20260506165003 | 58 | 8 | 4.0 | 11.0 | 0.00 | 0.49 | 0.40 | 75 | 1011.7 |
| 20260506164503 | 58 | 348 | 3.0 | 9.0 | 0.00 | 0.49 | 0.40 | 79 | 1011.8 |
| 20260506164003 | 57 | 343 | 3.0 | 5.0 | 0.00 | 0.49 | 0.40 | 78 | 1011.8 |
| 20260506163503 | 57 | 6 | 3.0 | 6.0 | 0.00 | 0.49 | 0.40 | 80 | 1011.8 |
| 20260506163003 | 57 | 358 | 3.0 | 6.0 | 0.00 | 0.49 | 0.40 | 77 | 1011.8 |
| 20260506162503 | 57 | 351 | 3.0 | 6.0 | 0.00 | 0.49 | 0.40 | 80 | 1011.7 |
| 20260506162003 | 56 | 352 | 3.0 | 7.0 | 0.00 | 0.49 | 0.40 | 78 | 1011.5 |
| 20260506161503 | 56 | 348 | 3.0 | 7.0 | 0.00 | 0.49 | 0.40 | 81 | 1011.5 |
| 20260506161003 | 56 | 1 | 2.0 | 7.0 | 0.00 | 0.49 | 0.40 | 80 | 1011.4 |
| 20260506160503 | 56 | 32 | 3.0 | 9.0 | 0.00 | 0.49 | 0.40 | 79 | 1011.4 |
| 20260506160003 | 56 | 49 | 4.0 | 9.0 | 0.00 | 0.49 | 0.40 | 79 | 1011.5 |
| 20260506155503 | 56 | 42 | 4.0 | 9.0 | 0.00 | 0.49 | 0.40 | 82 | 1011.5 |
| 20260506155003 | 56 | 28 | 4.0 | 8.0 | 0.00 | 0.49 | 0.40 | 80 | 1011.3 |
| 20260506154503 | 56 | 27 | 3.0 | 7.0 | 0.00 | 0.49 | 0.40 | 80 | 1011.2 |
| 20260506154003 | 55 | 34 | 3.0 | 7.0 | 0.00 | 0.49 | 0.40 | 84 | 1011.1 |
| 20260506153503 | 54 | 48 | 3.0 | 7.0 | 0.00 | 0.49 | 0.40 | 82 | 1011.0 |
| 20260506153003 | 54 | 5 | 3.0 | 6.0 | 0.00 | 0.49 | 0.40 | 81 | 1011.0 |
| 20260506152503 | 55 | 319 | 3.0 | 6.0 | 0.00 | 0.49 | 0.40 | 83 | 1011.1 |
| 20260506152003 | 54 | 310 | 2.0 | 5.0 | 0.00 | 0.49 | 0.40 | 85 | 1011.0 |
| 20260506151503 | 54 | 332 | 2.0 | 5.0 | 0.00 | 0.49 | 0.40 | 85 | 1011.0 |
| 20260506151003 | 54 | 327 | 2.0 | 5.0 | 0.00 | 0.49 | 0.40 | 84 | 1011.1 |
| 20260506150524 | 54 | 303 | 2.0 | 5.0 | 0.00 | 0.49 | 0.40 | 87 | 1011.1 |
| 20260506150003 | 53 | 341 | 2.0 | 5.0 | 0.00 | 0.49 | 0.40 | 88 | 1011.1 |
| 20260506145503 | 52 | 344 | 2.0 | 5.0 | 0.00 | 0.49 | 0.40 | 87 | 1011.1 |
| 20260506145003 | 52 | 338 | 3.0 | 6.0 | 0.00 | 0.49 | 0.40 | 88 | 1011.1 |
| 20260506144503 | 52 | 352 | 3.0 | 7.0 | 0.00 | 0.49 | 0.40 | 88 | 1011.1 |
| 20260506144003 | 51 | 18 | 3.0 | 7.0 | 0.00 | 0.49 | 0.40 | 90 | 1011.0 |
| 20260506143503 | 51 | 35 | 3.0 | 5.0 | 0.00 | 0.49 | 0.40 | 89 | 1011.0 |
| 20260506143003 | 50 | 37 | 3.0 | 5.0 | 0.00 | 0.49 | 0.40 | 91 | 1010.9 |
| 20260506142503 | 50 | 28 | 3.0 | 8.0 | 0.00 | 0.49 | 0.40 | 90 | 1010.8 |
| 20260506142003 | 50 | 22 | 4.0 | 8.0 | 0.00 | 0.49 | 0.40 | 89 | 1010.8 |
| 20260506141503 | 50 | 21 | 3.0 | 6.0 | 0.00 | 0.49 | 0.40 | 91 | 1010.5 |
| 20260506141003 | 49 | 29 | 2.0 | 5.0 | 0.00 | 0.49 | 0.40 | 91 | 1010.5 |
| 20260506140503 | 49 | 37 | 3.0 | 6.0 | 0.00 | 0.49 | 0.40 | 90 | 1010.4 |
| 20260506140024 | 49 | 4 | 3.0 | 6.0 | 0.00 | 0.49 | 0.40 | 90 | 1010.6 |
| 20260506135503 | 49 | 341 | 3.0 | 6.0 | 0.00 | 0.49 | 0.40 | 91 | 1010.6 |
| 20260506135003 | 49 | 2 | 2.0 | 6.0 | 0.00 | 0.49 | 0.40 | 91 | 1010.5 |
| 20260506134503 | 49 | 345 | 3.0 | 8.0 | 0.00 | 0.49 | 0.40 | 91 | 1010.5 |
| 20260506134003 | 49 | 346 | 3.0 | 8.0 | 0.00 | 0.49 | 0.40 | 92 | 1010.3 |
| 20260506133503 | 48 | 6 | 3.0 | 8.0 | 0.00 | 0.49 | 0.40 | 92 | 1010.1 |
| 20260506133003 | 48 | 359 | 3.0 | 8.0 | 0.00 | 0.49 | 0.40 | 92 | 1009.9 |
| 20260506132524 | 48 | 340 | 3.0 | 8.0 | 0.00 | 0.49 | 0.40 | 92 | 1010.0 |
| 20260506132003 | 48 | 338 | 3.0 | 7.0 | 0.00 | 0.49 | 0.40 | 92 | 1010.0 |
| 20260506131503 | 48 | 351 | 4.0 | 8.0 | 0.00 | 0.49 | 0.40 | 93 | 1010.0 |
| 20260506131024 | 48 | 354 | 4.0 | 8.0 | 0.00 | 0.49 | 0.40 | 92 | 1010.1 |
| 20260506130524 | 48 | 348 | 3.0 | 7.0 | 0.01 | 0.49 | 0.40 | 93 | 1009.9 |
| 20260506130024 | 48 | 338 | 3.0 | 9.0 | 0.01 | 0.49 | 0.40 | 93 | 1010.1 |
| 20260506125503 | 48 | 317 | 4.0 | 9.0 | 0.01 | 0.49 | 0.40 | 93 | 1010.1 |
| 20260506125003 | 48 | 306 | 4.0 | 8.0 | 0.01 | 0.49 | 0.40 | 93 | 1010.0 |
| 20260506124503 | 49 | 310 | 3.0 | 7.0 | 0.01 | 0.49 | 0.40 | 94 | 1010.0 |
| 20260506124003 | 49 | 310 | 4.0 | 10.0 | 0.01 | 0.49 | 0.40 | 94 | 1009.7 |
| 20260506123503 | 49 | 305 | 3.0 | 10.0 | 0.01 | 0.49 | 0.40 | 94 | 1009.4 |
| 20260506123024 | 49 | 318 | 3.0 | 5.0 | 0.01 | 0.49 | 0.40 | 94 | 1009.1 |
| 20260506122503 | 49 | 332 | 3.0 | 5.0 | 0.01 | 0.49 | 0.40 | 94 | 1009.2 |
| 20260506122003 | 49 | 332 | 3.0 | 5.0 | 0.01 | 0.49 | 0.40 | 95 | 1009.1 |
| 20260506121503 | 49 | 334 | 3.0 | 6.0 | 0.01 | 0.49 | 0.40 | 95 | 1008.9 |
| 20260506121003 | 49 | 332 | 2.0 | 6.0 | 0.01 | 0.49 | 0.40 | 94 | 1008.9 |
| 20260506120503 | 49 | 326 | 2.0 | 5.0 | 0.00 | 0.48 | 0.39 | 95 | 1009.1 |
| 20260506120003 | 48 | 315 | 2.0 | 5.0 | 0.00 | 0.48 | 0.39 | 95 | 1009.0 |
| 20260506115503 | 48 | 307 | 2.0 | 5.0 | 0.00 | 0.48 | 0.39 | 95 | 1009.2 |
| 20260506115003 | 48 | 305 | 3.0 | 7.0 | 0.00 | 0.48 | 0.39 | 95 | 1009.1 |
| 20260506114525 | 48 | 305 | 3.0 | 7.0 | 0.00 | 0.48 | 0.39 | 95 | 1008.9 |
| 20260506114003 | 48 | 313 | 3.0 | 6.0 | 0.00 | 0.48 | 0.39 | 95 | 1008.8 |
| 20260506113503 | 48 | 321 | 4.0 | 8.0 | 0.00 | 0.48 | 0.39 | 95 | 1008.4 |
| 20260506113024 | 48 | 317 | 3.0 | 8.0 | 0.00 | 0.48 | 0.39 | 95 | 1008.5 |
| 20260506112503 | 48 | 323 | 2.0 | 6.0 | 0.00 | 0.48 | 0.39 | 95 | 1008.4 |
| 20260506112003 | 48 | 331 | 3.0 | 7.0 | 0.00 | 0.48 | 0.39 | 95 | 1008.1 |
| 20260506111503 | 48 | 323 | 3.0 | 8.0 | 0.00 | 0.48 | 0.39 | 95 | 1008.2 |
| 20260506111003 | 48 | 321 | 3.0 | 8.0 | 0.00 | 0.48 | 0.39 | 95 | 1008.4 |
| 20260506110503 | 48 | 330 | 2.0 | 6.0 | 0.00 | 0.48 | 0.39 | 94 | 1008.1 |
| 20260506110024 | 48 | 333 | 2.0 | 6.0 | 0.00 | 0.48 | 0.39 | 94 | 1007.7 |
| 20260506105503 | 48 | 323 | 4.0 | 9.0 | 0.00 | 0.48 | 0.39 | 94 | 1007.7 |
| 20260506105024 | 49 | 317 | 5.0 | 10.0 | 0.00 | 0.48 | 0.39 | 94 | 1007.8 |
| 20260506104503 | 49 | 311 | 4.0 | 10.0 | 0.00 | 0.48 | 0.39 | 95 | 1007.5 |
| 20260506104024 | 49 | 314 | 3.0 | 6.0 | 0.01 | 0.48 | 0.39 | 95 | 1007.4 |
| 20260506103503 | 49 | 341 | 3.0 | 7.0 | 0.01 | 0.48 | 0.39 | 94 | 1007.3 |
| 20260506103003 | 49 | 352 | 3.0 | 8.0 | 0.01 | 0.48 | 0.39 | 94 | 1007.0 |
| 20260506102524 | 49 | 349 | 3.0 | 8.0 | 0.01 | 0.48 | 0.39 | 94 | 1006.7 |
| 20260506102003 | 49 | 337 | 4.0 | 10.0 | 0.01 | 0.48 | 0.39 | 94 | 1006.6 |
| 20260506101524 | 49 | 338 | 4.0 | 10.0 | 0.02 | 0.48 | 0.39 | 94 | 1006.6 |
| 20260506101003 | 49 | 351 | 4.0 | 11.0 | 0.03 | 0.48 | 0.39 | 94 | 1006.3 |
| 20260506100503 | 49 | 358 | 4.0 | 11.0 | 0.03 | 0.48 | 0.39 | 94 | 1006.1 |
| 20260506100003 | 50 | 358 | 4.0 | 10.0 | 0.03 | 0.48 | 0.39 | 93 | 1006.1 |
| 20260506095503 | 50 | 355 | 5.0 | 13.0 | 0.03 | 0.48 | 0.39 | 93 | 1006.2 |
| 20260506095024 | 50 | 352 | 5.0 | 13.0 | 0.03 | 0.48 | 0.39 | 93 | 1006.3 |
| 20260506094503 | 51 | 332 | 4.0 | 9.0 | 0.03 | 0.48 | 0.39 | 93 | 1006.3 |
| 20260506094003 | 51 | 322 | 5.0 | 9.0 | 0.02 | 0.47 | 0.38 | 93 | 1006.5 |
| 20260506093503 | 52 | 312 | 5.0 | 11.0 | 0.02 | 0.47 | 0.38 | 93 | 1006.0 |
| 20260506093003 | 52 | 309 | 5.0 | 11.0 | 0.02 | 0.47 | 0.38 | 93 | 1006.1 |
| 20260506092503 | 53 | 311 | 5.0 | 10.0 | 0.02 | 0.47 | 0.38 | 93 | 1006.1 |
| 20260506092024 | 54 | 307 | 5.0 | 9.0 | 0.02 | 0.47 | 0.38 | 93 | 1006.3 |
| 20260506091503 | 54 | 306 | 4.0 | 7.0 | 0.02 | 0.46 | 0.37 | 94 | 1006.1 |
| 20260506091003 | 55 | 303 | 3.0 | 7.0 | 0.02 | 0.45 | 0.36 | 94 | 1006.0 |
| 20260506090503 | 55 | 304 | 5.0 | 9.0 | 0.04 | 0.45 | 0.36 | 94 | 1006.0 |
| 20260506090003 | 56 | 309 | 5.0 | 9.0 | 0.07 | 0.45 | 0.36 | 93 | 1005.6 |
| 20260506085503 | 57 | 302 | 5.0 | 10.0 | 0.08 | 0.45 | 0.36 | 93 | 1005.4 |
| 20260506085024 | 58 | 289 | 5.0 | 10.0 | 0.09 | 0.45 | 0.36 | 94 | 1005.3 |
| 20260506084503 | 58 | 273 | 2.0 | 8.0 | 0.11 | 0.45 | 0.36 | 96 | 1005.1 |
| 20260506084024 | 58 | 265 | 2.0 | 4.0 | 0.12 | 0.45 | 0.36 | 96 | 1005.2 |
| 20260506083503 | 58 | 258 | 3.0 | 5.0 | 0.12 | 0.45 | 0.36 | 95 | 1004.9 |
| 20260506083003 | 58 | 255 | 3.0 | 6.0 | 0.12 | 0.45 | 0.36 | 95 | 1004.8 |
| 20260506082503 | 58 | 257 | 2.0 | 6.0 | 0.13 | 0.45 | 0.36 | 95 | 1004.8 |
| 20260506082003 | 58 | 262 | 1.0 | 3.0 | 0.14 | 0.45 | 0.36 | 95 | 1004.6 |
| 20260506081503 | 58 | 267 | 1.0 | 5.0 | 0.15 | 0.44 | 0.35 | 95 | 1004.6 |
| 20260506081003 | 58 | 263 | 1.0 | 5.0 | 0.14 | 0.43 | 0.34 | 95 | 1004.5 |
| 20260506080524 | 58 | 260 | 1.0 | 5.0 | 0.14 | 0.41 | 0.32 | 95 | 1004.6 |
| 20260506073503 | 58 | 232 | 1.0 | 4.0 | 0.11 | 0.33 | 0.24 | 95 | 1004.2 |
| 20260506073003 | 58 | 240 | 1.0 | 4.0 | 0.11 | 0.33 | 0.24 | 95 | 1004.2 |
| 20260506072503 | 58 | 246 | 1.0 | 4.0 | 0.11 | 0.32 | 0.23 | 94 | 1004.3 |
| 20260506072003 | 58 | 251 | 1.0 | 4.0 | 0.11 | 0.31 | 0.22 | 94 | 1004.3 |
| 20260506071503 | 58 | 260 | 2.0 | 4.0 | 0.09 | 0.29 | 0.20 | 94 | 1004.3 |
| 20260506071003 | 59 | 269 | 2.0 | 4.0 | 0.12 | 0.29 | 0.20 | 94 | 1004.2 |
| 20260506070524 | 59 | 280 | 2.0 | 3.0 | 0.11 | 0.27 | 0.19 | 94 | 1004.3 |
| 20260506062024 | 59 | 256 | 3.0 | 8.0 | 0.10 | 0.20 | 0.12 | 93 | 1004.3 |
| 20260506061503 | 59 | 267 | 3.0 | 8.0 | 0.10 | 0.20 | 0.11 | 92 | 1004.5 |
| 20260506061003 | 59 | 265 | 3.0 | 7.0 | 0.07 | 0.17 | 0.08 | 92 | 1004.6 |
| 20260506060503 | 59 | 236 | 4.0 | 14.0 | 0.06 | 0.16 | 0.07 | 92 | 1004.5 |
| 20260506051003 | 59 | 169 | 1.0 | 4.0 | 0.01 | 0.10 | 0.01 | 92 | 1004.6 |
| 20260506050503 | 59 | 179 | 0.0 | 4.0 | 0.01 | 0.10 | 0.01 | 92 | 1004.6 |
| 20260506045003 | 59 | 150 | 1.0 | 4.0 | 0.04 | 0.10 | 0.01 | 91 | 1004.6 |
| 20260506044003 | 59 | 187 | 2.0 | 6.0 | 0.04 | 0.10 | 0.01 | 91 | 1004.8 |
| 20260506043503 | 60 | 193 | 2.0 | 7.0 | 0.04 | 0.10 | 0.01 | 90 | 1004.8 |
| 20260506043003 | 60 | 190 | 2.0 | 8.0 | 0.04 | 0.10 | 0.01 | 90 | 1005.1 |
| 20260506042503 | 60 | 188 | 3.0 | 8.0 | 0.03 | 0.09 | 0.00 | 90 | 1005.2 |
| 20260506042003 | 60 | 187 | 3.0 | 7.0 | 0.04 | 0.09 | 0.00 | 90 | 1005.3 |
| 20260506041503 | 60 | 185 | 2.0 | 7.0 | 0.04 | 0.09 | 0.00 | 91 | 1005.4 |
| 20260506041003 | 60 | 184 | 2.0 | 6.0 | 0.04 | 0.09 | 0.00 | 90 | 1005.5 |
| 20260506040503 | 60 | 178 | 2.0 | 5.0 | 0.04 | 0.09 | 0.00 | 90 | 1005.5 |
| 20260506040003 | 60 | 183 | 2.0 | 5.0 | 0.04 | 0.09 | 0.00 | 89 | 1005.7 |
| 20260506035524 | 60 | 199 | 2.0 | 5.0 | 0.01 | 0.06 | 0.06 | 88 | 1005.9 |
| 20260506035003 | 61 | 206 | 2.0 | 5.0 | 0.01 | 0.06 | 0.06 | 88 | 1005.9 |
| 20260506034503 | 61 | 204 | 2.0 | 8.0 | 0.01 | 0.06 | 0.06 | 87 | 1005.9 |
| 20260506034003 | 61 | 208 | 4.0 | 10.0 | 0.01 | 0.06 | 0.06 | 86 | 1005.8 |
| 20260506033524 | 61 | 216 | 4.0 | 10.0 | 0.01 | 0.06 | 0.06 | 85 | 1006.0 |
| 20260506033024 | 62 | 229 | 4.0 | 14.0 | 0.01 | 0.06 | 0.06 | 85 | 1006.1 |
| 20260506032503 | 62 | 232 | 6.0 | 21.0 | 0.01 | 0.06 | 0.06 | 84 | 1006.1 |
| 20260506032003 | 63 | 228 | 8.0 | 21.0 | 0.00 | 0.05 | 0.05 | 82 | 1006.2 |
| 20260506031503 | 64 | 225 | 8.0 | 19.0 | 0.00 | 0.05 | 0.05 | 80 | 1006.3 |
| 20260506031003 | 64 | 228 | 7.0 | 19.0 | 0.00 | 0.05 | 0.05 | 78 | 1006.3 |
| 20260506030503 | 64 | 233 | 7.0 | 22.0 | 0.00 | 0.05 | 0.05 | 78 | 1006.2 |
| 20260506030003 | 64 | 231 | 7.0 | 22.0 | 0.00 | 0.05 | 0.05 | 78 | 1006.2 |
| 20260506025503 | 63 | 223 | 5.0 | 15.0 | 0.00 | 0.05 | 0.05 | 80 | 1006.1 |
| 20260506025003 | 63 | 219 | 4.0 | 11.0 | 0.00 | 0.05 | 0.05 | 82 | 1006.1 |
| 20260506024503 | 62 | 214 | 5.0 | 15.0 | 0.00 | 0.05 | 0.05 | 83 | 1005.8 |
| 20260506024024 | 62 | 211 | 5.0 | 16.0 | 0.00 | 0.05 | 0.05 | 85 | 1005.8 |
| 20260506023503 | 61 | 201 | 3.0 | 16.0 | 0.00 | 0.05 | 0.05 | 88 | 1005.8 |
| 20260506023003 | 60 | 180 | 1.0 | 6.0 | 0.00 | 0.05 | 0.05 | 90 | 1005.7 |
| 20260506022503 | 60 | 150 | 1.0 | 3.0 | 0.00 | 0.05 | 0.05 | 91 | 1005.8 |
| 20260506022003 | 60 | 145 | 1.0 | 3.0 | 0.00 | 0.05 | 0.05 | 91 | 1005.7 |
| 20260506021503 | 60 | 173 | 1.0 | 3.0 | 0.00 | 0.05 | 0.05 | 91 | 1005.7 |
| 20260506021003 | 60 | 199 | 1.0 | 2.0 | 0.00 | 0.05 | 0.05 | 91 | 1005.9 |
| 20260506020503 | 60 | 207 | 0.0 | 2.0 | 0.00 | 0.05 | 0.05 | 91 | 1005.5 |
| 20260506020003 | 60 | 194 | 0.0 | 2.0 | 0.00 | 0.05 | 0.05 | 91 | 1005.5 |
| 20260506015503 | 60 | 187 | 0.0 | 2.0 | 0.01 | 0.05 | 0.05 | 91 | 1005.4 |
| 20260506015024 | 60 | 171 | 0.0 | 1.0 | 0.01 | 0.05 | 0.05 | 91 | 1005.2 |
| 20260506014524 | 61 | 166 | 0.0 | 1.0 | 0.02 | 0.05 | 0.05 | 91 | 1005.2 |
| 20260506014003 | 61 | 168 | 0.0 | 1.0 | 0.02 | 0.05 | 0.05 | 91 | 1005.2 |
| 20260506013503 | 61 | 167 | 0.0 | 2.0 | 0.03 | 0.05 | 0.05 | 90 | 1005.3 |
| 20260506013003 | 61 | 167 | 0.0 | 2.0 | 0.04 | 0.05 | 0.05 | 90 | 1005.3 |
| 20260506012503 | 61 | 168 | 0.0 | 1.0 | 0.04 | 0.05 | 0.05 | 89 | 1005.2 |
| 20260506012003 | 61 | 192 | 0.0 | 2.0 | 0.04 | 0.05 | 0.05 | 89 | 1005.3 |
| 20260506011504 | 61 | 187 | 0.0 | 3.0 | 0.04 | 0.05 | 0.05 | 88 | 1005.4 |
| 20260506011003 | 61 | 186 | 1.0 | 3.0 | 0.04 | 0.05 | 0.05 | 88 | 1005.4 |
| 20260506010503 | 61 | 167 | 1.0 | 3.0 | 0.04 | 0.05 | 0.05 | 88 | 1005.2 |
| 20260506010003 | 61 | 155 | 1.0 | 4.0 | 0.04 | 0.05 | 0.05 | 88 | 1005.1 |
| 20260506005524 | 62 | 175 | 2.0 | 5.0 | 0.03 | 0.04 | 0.04 | 88 | 1005.3 |
| 20260506005003 | 62 | 174 | 2.0 | 5.0 | 0.03 | 0.04 | 0.04 | 88 | 1005.7 |
| 20260506004504 | 62 | 150 | 3.0 | 7.0 | 0.02 | 0.03 | 0.03 | 88 | 1005.4 |
| 20260506004003 | 62 | 142 | 3.0 | 7.0 | 0.02 | 0.03 | 0.03 | 88 | 1005.2 |
| 20260506003503 | 62 | 135 | 2.0 | 7.0 | 0.01 | 0.02 | 0.02 | 91 | 1005.1 |
| 20260506003003 | 62 | 92 | 1.0 | 4.0 | 0.01 | 0.01 | 0.01 | 89 | 1005.9 |
| 20260506002503 | 62 | 353 | 0.0 | 2.0 | 0.01 | 0.01 | 0.01 | 89 | 1006.3 |
| 20260506002024 | 62 | 7 | 0.0 | 1.0 | 0.01 | 0.01 | 0.01 | 88 | 1006.1 |
| 20260506001503 | 63 | 7 | 0.0 | 1.0 | 0.01 | 0.01 | 0.01 | 87 | 1006.0 |
| 20260506001003 | 63 | 7 | 0.0 | 1.0 | 0.01 | 0.01 | 0.01 | 88 | 1006.0 |
| 20260506000503 | 63 | 7 | 0.0 | 1.0 | 0.01 | 0.01 | 0.01 | 87 | 1005.9 |
| 20260506000003 | 63 | 7 | 0.0 | 1.0 | 0.01 | 0.01 | 0.01 | 86 | 1006.0 |
| 20260505235503 | 64 | 7 | 0.0 | 1.0 | 0.01 | 0.01 | 0.01 | 85 | 1006.0 |
| 20260505235024 | 64 | 339 | 0.0 | 2.0 | 0.01 | 0.01 | 0.01 | 84 | 1006.1 |
| 20260505234503 | 64 | 284 | 1.0 | 2.0 | 0.01 | 0.01 | 0.01 | 82 | 1006.1 |
| 20260505234003 | 65 | 253 | 1.0 | 2.0 | 0.01 | 0.01 | 0.01 | 80 | 1006.2 |
| 20260505233503 | 65 | 196 | 1.0 | 3.0 | 0.01 | 0.01 | 0.01 | 78 | 1006.2 |
| 20260505233003 | 65 | 192 | 1.0 | 3.0 | 0.00 | 0.00 | 0.00 | 77 | 1006.2 |
| 20260505232503 | 65 | 194 | 1.0 | 3.0 | 0.00 | 0.00 | 0.00 | 77 | 1006.1 |
| 20260505232003 | 65 | 172 | 1.0 | 4.0 | 0.00 | 0.00 | 0.00 | 77 | 1006.1 |
| 20260505231503 | 65 | 155 | 1.0 | 4.0 | 0.00 | 0.00 | 0.00 | 76 | 1005.9 |